Theta_e
309 307 306 306 305 305 304 304 305 306 306 306 306 306 306 306 306 307 306 307 308 309 308 306 307 307 308 312 315 316 317 317 313 310 309 309 308 308 307 307 306 306 310 313 313 312 312 312 313 314 314 314 313 312 311 312 311 311 311 311 310 310 310 311 311 311 312 312 312 311 312 313 313 314 314 315 315 314 314 313 319 327 331 335 339 341 345 347
309 307 306 307 306 305 305 305 305 306 307 307 307 306 306 306 306 307 307 307 309 309 308 307 308 309 311 314 316 317 317 317 314 310 310 310 308 308 307 307 307 308 311 312 311 311 311 311 311 312 314 315 313 311 311 311 311 310 312 311 310 311 311 311 311 311 312 311 311 311 311 312 313 313 314 314 313 312 314 312 314 316 318 323 334 342 344 346
309 306 307 307 306 306 306 305 306 307 307 307 307 307 307 307 307 307 307 307 309 309 308 308 309 311 313 315 316 316 316 316 314 311 310 310 309 310 309 309 310 311 312 312 312 313 312 312 312 312 313 312 312 312 312 311 310 310 310 310 311 311 310 310 311 311 312 311 311 310 311 312 312 313 313 313 312 312 312 312 312 313 314 316 325 341 346 346
309 306 307 307 307 306 306 306 306 307 307 308 308 308 308 308 308 308 307 308 309 308 308 308 310 312 314 315 314 314 316 316 314 311 311 310 310 311 312 312 312 312 312 313 313 313 313 313 312 313 312 310 311 311 311 311 311 311 310 311 311 310 310 310 311 311 311 312 311 310 311 312 312 313 313 312 312 313 311 312 312 311 314 314 319 335 342 346
308 306 308 308 307 306 306 307 307 308 308 309 309 308 308 308 309 308 307 308 309 308 309 309 309 311 312 313 313 313 316 317 314 312 312 311 310 311 313 313 314 313 312 312 312 312 313 313 312 313 312 310 311 311 311 311 311 311 310 310 309 309 310 310 311 311 311 311 311 310 310 312 312 312 312 312 312 313 312 312 313 312 313 312 315 326 335 344
308 306 308 309 308 307 306 307 307 308 309 310 309 309 309 308 308 308 307 308 309 308 309 309 310 311 311 312 314 315 317 318 314 313 314 313 311 311 313 314 313 313 313 313 313 313 312 312 313 313 311 310 311 311 311 311 311 311 310 310 309 309 309 310 311 311 312 311 310 310 311 312 311 312 312 312 312 312 313 312 312 313 312 313 315 322 331 339
308 307 307 309 309 308 308 307 308 308 309 310 310 309 309 307 307 308 308 309 309 308 309 310 310 311 311 312 316 318 318 317 314 314 315 315 313 312 313 313 313 313 313 314 314 313 312 312 312 312 311 312 311 311 311 312 311 311 311 311 310 310 310 311 312 311 312 311 310 310 311 312 311 312 312 312 312 313 313 313 313 312 312 313 313 320 330 335
309 307 307 309 309 309 309 308 309 308 309 310 310 309 308 307 307 308 308 309 308 309 309 310 311 311 312 313 317 319 316 315 314 314 314 314 314 313 313 313 313 314 314 314 314 313 313 312 312 312 312 312 312 311 312 313 312 311 312 312 312 312 311 312 312 312 312 311 311 311 311 311 311 312 311 311 312 312 313 313 313 312 312 312 311 317 323 327
309 307 307 309 309 309 308 308 308 309 309 310 310 309 308 306 307 308 309 309 309 310 310 311 311 312 312 313 316 316 313 313 314 314 313 314 315 314 314 314 314 314 314 314 314 314 314 313 313 312 312 312 312 312 312 313 312 312 312 312 312 312 313 313 313 313 313 312 311 311 311 311 311 312 311 312 312 312 312 312 312 312 312 312 311 313 314 319
310 308 307 308 309 309 309 307 307 308 309 310 310 309 308 307 308 309 310 310 310 310 310 311 311 312 313 313 315 317 314 313 314 313 313 314 314 315 315 315 315 315 314 314 314 314 314 314 314 313 312 312 312 312 312 313 313 313 313 313 313 313 313 313 313 313 313 312 311 310 310 310 311 311 311 312 312 312 312 312 312 312 312 312 312 311 312 316
310 309 307 307 309 309 309 308 307 308 309 310 310 309 308 307 309 310 310 310 310 311 311 311 311 312 313 313 316 318 315 313 314 313 313 314 314 314 314 315 315 315 314 314 314 314 314 314 313 313 313 313 313 313 313 313 313 313 313 313 313 312 313 313 313 314 313 312 313 312 310 310 311 311 311 311 312 312 312 312 312 312 312 312 312 311 312 313
311 310 307 307 308 309 309 308 307 308 310 310 310 310 308 308 309 310 310 310 310 311 311 311 312 313 313 315 316 316 314 314 313 313 314 314 314 314 314 314 314 315 314 314 315 314 314 314 313 313 314 313 313 313 314 314 313 314 314 314 314 313 313 313 312 313 313 313 315 313 311 311 310 310 311 311 312 312 312 312 312 312 312 312 311 311 312 311
311 310 308 307 308 309 309 308 307 308 310 310 310 310 309 308 309 310 310 310 311 311 311 311 311 312 314 316 316 316 315 314 314 314 314 314 314 314 314 314 314 314 314 314 315 314 314 314 313 313 314 313 313 314 314 313 314 314 313 313 314 315 316 314 313 315 315 315 316 314 312 312 311 310 311 312 312 312 312 312 312 312 312 312 312 312 311 311
312 310 309 307 307 308 309 309 307 308 310 311 310 311 310 310 309 310 310 310 310 311 311 311 311 313 315 317 317 317 315 315 315 315 314 314 313 314 314 314 314 314 314 314 314 314 314 314 314 313 314 314 313 313 314 313 314 314 315 317 316 316 318 315 314 316 315 316 315 313 312 312 311 311 312 312 312 312 311 311 312 312 312 312 312 312 312 312
312 311 310 308 307 308 309 309 307 308 310 311 311 311 311 311 311 310 310 310 310 311 311 311 312 313 315 317 316 316 315 315 315 313 313 313 313 314 314 314 314 314 314 314 314 314 314 314 314 314 314 314 313 313 314 314 317 317 317 321 319 316 318 316 314 316 315 316 315 313 313 313 312 313 313 313 312 312 311 312 312 312 312 312 312 312 312 312
312 311 310 309 308 308 309 309 307 308 310 312 314 314 313 313 312 311 311 311 311 311 311 312 312 313 316 317 314 314 315 314 313 312 313 313 313 314 314 314 314 314 314 314 314 314 314 314 314 314 313 313 314 314 316 318 323 326 320 319 320 317 317 317 315 314 314 315 315 314 315 315 315 315 315 315 314 313 312 312 312 313 313 313 313 313 312 312
312 311 311 310 308 308 309 308 307 309 312 314 316 317 317 316 315 314 313 312 312 312 311 312 312 313 316 317 313 313 313 313 313 312 313 314 313 314 314 314 314 314 314 314 314 314 314 314 313 315 314 315 316 315 319 321 324 328 324 320 320 317 316 317 317 315 314 315 315 315 315 316 316 314 314 315 315 314 313 313 313 313 314 314 314 314 313 312
312 311 311 310 309 309 309 308 307 310 314 314 315 316 315 315 316 317 316 314 314 313 314 314 314 314 315 314 313 313 313 313 314 314 314 314 314 314 314 314 314 314 314 314 314 314 314 314 314 316 318 318 318 317 319 320 319 321 321 319 318 317 316 317 317 316 315 315 315 315 315 315 315 314 313 314 315 314 314 314 314 314 314 315 315 314 314 313
312 311 311 310 309 310 310 309 308 311 315 314 313 314 312 311 314 317 316 315 315 316 318 317 316 316 314 312 313 313 313 314 314 314 314 314 314 314 314 314 314 314 313 314 315 314 313 314 314 317 319 318 317 317 317 318 317 318 318 318 317 317 316 315 316 316 315 316 316 315 315 314 314 315 314 314 315 314 314 315 315 315 315 315 315 315 315 313
312 311 311 310 310 311 312 311 310 312 315 314 313 313 312 312 315 317 314 313 313 314 315 315 315 316 313 313 313 313 314 314 314 314 314 314 314 313 314 314 314 315 314 314 315 314 314 317 317 318 318 317 317 317 317 318 318 318 318 318 318 317 317 316 316 316 315 317 317 316 315 314 314 315 314 313 315 314 313 314 314 315 315 315 315 315 315 314
313 311 311 310 310 312 313 313 312 312 314 315 314 313 313 312 315 316 313 312 312 312 314 315 315 315 314 314 313 313 314 314 314 314 314 315 314 313 314 313 315 317 315 313 314 316 320 321 319 319 318 318 320 318 319 320 319 319 319 319 318 318 317 316 316 317 315 317 318 316 315 315 315 315 315 314 314 314 313 313 314 314 314 315 315 314 315 315
313 311 311 310 309 312 314 313 314 314 314 315 314 313 313 313 313 314 313 313 312 312 314 315 315 315 315 314 314 314 314 314 314 314 315 315 314 314 314 314 316 317 317 318 320 324 326 324 321 320 319 320 321 319 321 322 320 319 319 318 318 318 318 318 317 316 315 316 317 316 316 316 315 315 315 314 313 313 314 314 314 314 314 314 314 314 314 315
313 312 311 311 309 310 314 315 315 315 315 316 315 313 312 313 313 312 313 314 314 313 315 316 316 315 314 314 314 314 313 314 314 314 315 315 315 315 314 315 318 319 319 323 324 324 325 326 323 319 319 321 320 319 322 322 320 319 318 318 318 317 318 318 317 316 315 315 315 316 316 316 317 317 316 313 312 313 314 314 314 314 314 314 315 315 315 315
314 312 311 311 309 309 312 314 315 315 314 315 314 312 313 313 313 313 313 314 315 315 316 317 316 314 314 314 314 315 314 314 314 314 315 315 315 315 315 315 318 321 320 322 324 322 323 324 320 319 322 321 319 320 321 320 320 318 317 317 317 316 317 317 316 315 315 315 316 315 317 322 323 319 317 315 314 314 314 314 315 315 315 315 315 315 315 315
315 313 311 311 310 310 312 313 315 315 313 313 312 312 313 311 312 313 313 318 322 321 317 315 315 314 314 315 315 314 314 314 314 315 315 315 315 315 316 316 317 322 324 322 322 322 324 323 318 320 324 321 321 320 319 319 320 319 317 317 316 316 316 316 316 316 317 319 320 316 319 326 325 318 317 317 316 315 314 315 315 315 315 315 315 315 315 315
315 313 312 311 310 311 314 314 315 315 313 313 312 313 312 311 313 313 315 324 328 322 316 314 315 315 314 315 315 314 315 316 314 315 315 315 316 315 318 318 317 321 321 318 321 324 324 321 318 321 321 322 323 321 318 319 320 320 318 317 316 316 316 317 316 317 318 319 318 315 318 322 322 319 318 317 316 315 314 315 314 314 314 314 314 314 314 314
316 313 312 312 310 311 315 316 316 315 315 314 313 313 312 310 312 312 319 327 323 315 316 316 315 316 315 315 315 315 318 317 315 315 315 315 316 314 319 322 320 319 316 318 325 327 322 319 321 322 321 322 322 321 320 318 318 320 319 317 317 316 317 317 316 318 318 317 318 317 317 319 322 322 318 316 316 315 314 315 314 313 313 313 314 314 313 313
316 314 312 312 310 310 313 315 316 314 314 313 312 311 310 310 312 316 325 327 319 314 318 317 315 315 315 315 316 316 317 315 316 317 315 315 316 314 317 320 319 318 316 318 323 321 319 319 319 321 322 321 320 319 319 318 318 319 318 318 318 316 316 316 317 318 317 317 320 321 318 320 323 322 316 316 316 314 314 314 312 312 312 312 312 312 312 312
316 313 313 312 311 310 310 311 315 315 313 312 310 309 309 311 314 320 325 323 318 316 317 317 317 315 315 316 315 315 315 315 315 316 315 315 315 315 317 317 316 317 316 317 319 317 317 317 317 320 321 319 318 318 318 318 318 317 317 317 316 315 316 316 317 318 317 319 321 321 320 321 322 320 317 317 316 313 313 312 311 311 311 311 312 311 312 311
315 313 313 312 311 311 309 311 315 314 312 311 311 312 312 314 320 326 323 319 319 318 316 317 316 314 318 321 319 316 315 315 314 315 315 315 316 315 316 315 315 319 317 316 318 316 316 317 316 318 319 317 317 317 316 316 315 316 317 317 316 317 319 319 320 319 319 322 322 319 320 320 319 318 317 316 314 312 312 311 311 310 311 311 311 311 311 311
314 312 313 313 311 311 310 311 313 312 312 313 314 317 318 321 328 330 322 316 320 321 317 318 317 316 320 322 319 316 316 315 314 315 315 317 318 316 318 318 316 321 322 319 319 317 319 323 319 317 317 315 318 319 316 315 314 315 317 317 318 319 321 323 325 322 321 324 322 317 316 317 318 318 315 314 313 311 311 311 310 310 310 310 310 310 310 310
313 312 313 313 311 312 312 312 312 312 315 319 319 320 324 328 327 325 321 318 322 321 316 317 317 317 321 322 318 315 317 317 314 315 316 317 319 318 320 319 317 321 323 321 320 318 321 323 317 317 317 315 320 323 319 316 316 316 317 318 319 319 319 319 321 322 321 323 321 315 315 317 317 317 314 313 313 311 311 311 310 310 310 310 310 310 310 310
312 312 314 313 313 314 314 313 313 314 317 321 321 321 330 332 323 319 321 320 320 319 316 317 317 317 324 325 317 314 317 317 314 314 317 318 319 319 319 319 319 320 320 320 319 319 322 322 318 320 320 316 319 321 319 317 318 317 317 319 319 317 316 315 316 318 319 320 318 315 316 318 318 317 314 312 313 312 311 311 310 310 310 310 310 310 310 310
311 313 315 315 316 316 315 315 314 314 317 318 321 327 331 326 317 318 321 318 317 318 317 317 318 319 323 320 315 315 317 319 315 314 319 324 324 321 319 319 319 320 321 322 320 319 320 322 322 321 320 318 317 317 316 316 319 319 316 317 319 317 316 316 317 318 317 317 315 315 317 319 320 319 314 312 312 311 311 311 310 310 310 310 310 310 310 310
311 315 316 317 319 317 316 316 314 315 316 316 326 333 327 317 315 319 320 318 317 317 318 318 318 321 323 319 318 316 315 317 316 315 321 325 324 322 319 318 317 318 321 322 319 318 319 322 321 318 317 319 318 317 316 316 319 320 316 316 318 317 316 316 318 317 316 316 316 316 318 319 319 318 314 313 312 311 311 310 310 310 310 310 310 310 310 310
312 317 318 319 320 318 317 316 315 315 315 319 331 333 320 314 317 319 318 317 316 315 319 321 319 322 322 320 320 318 315 317 317 316 319 323 322 320 318 316 315 317 318 318 319 320 319 321 321 317 317 318 316 316 316 314 317 319 318 316 313 312 314 316 317 316 315 316 316 316 317 318 318 317 316 313 311 310 310 310 310 310 310 310 310 310 310 310
313 318 321 321 320 319 318 317 317 315 314 322 331 330 320 314 315 317 316 314 313 315 320 322 318 318 319 319 320 318 318 320 318 315 319 322 322 319 318 318 316 316 315 316 319 319 318 320 322 319 320 319 315 316 315 312 314 319 318 315 312 312 315 316 315 315 315 316 315 314 316 317 318 318 317 314 311 310 310 309 310 310 310 310 309 309 310 309
313 318 322 321 320 321 319 317 317 315 316 324 330 328 322 316 313 315 314 311 314 319 321 321 318 317 318 319 319 318 319 320 317 316 318 320 320 318 318 319 317 315 314 314 317 318 318 320 323 321 320 320 318 319 317 312 312 315 314 312 313 315 316 315 315 315 315 315 315 314 314 316 318 319 318 314 311 310 309 309 310 310 310 310 309 309 309 309
314 319 322 321 320 320 320 319 316 314 319 329 331 323 317 315 313 313 313 311 314 319 319 317 318 319 319 319 319 318 318 317 317 318 318 318 319 318 316 317 316 314 313 313 316 318 317 318 321 321 319 320 321 321 319 315 313 313 312 312 313 315 315 314 314 315 315 315 315 314 313 315 319 320 317 314 311 309 309 310 310 310 309 309 309 309 309 309
316 321 324 320 318 318 319 319 315 317 324 329 327 317 311 312 311 311 314 312 313 318 317 316 318 318 319 319 318 318 318 317 318 318 318 317 319 320 317 317 317 315 313 313 314 318 319 317 318 320 319 320 321 320 318 317 316 316 314 312 312 314 314 312 313 315 316 315 314 314 314 315 318 319 316 313 310 309 309 310 310 310 309 309 309 309 309 309
318 324 325 320 317 316 315 317 316 320 327 325 320 314 311 311 310 311 313 311 313 316 316 317 319 318 319 320 318 318 319 320 319 318 317 318 319 319 318 317 315 314 316 316 316 318 319 317 317 319 319 319 319 316 315 314 314 314 313 312 311 312 313 313 314 314 314 314 313 314 314 314 317 319 315 311 309 309 309 309 310 310 309 309 309 309 309 309
319 325 325 319 318 316 315 321 319 318 323 321 316 314 313 311 312 313 312 310 313 314 313 316 319 319 320 320 318 318 320 321 321 318 317 318 319 318 316 315 314 314 317 319 316 315 316 317 317 318 318 318 315 312 311 311 311 312 311 311 312 311 311 314 315 313 313 313 313 313 313 314 318 319 313 309 309 309 309 309 309 310 309 309 309 309 309 309
319 323 323 320 319 316 318 326 324 320 321 318 314 314 313 312 314 314 312 311 313 314 313 314 316 316 317 317 318 318 318 319 320 319 318 319 319 317 315 314 314 314 316 319 316 313 317 318 318 317 317 316 314 312 311 311 311 312 311 310 312 311 310 311 312 311 312 313 312 312 312 313 315 314 310 308 309 309 309 309 309 309 309 309 309 309 309 309
320 321 320 320 320 317 318 322 323 324 323 317 315 316 314 313 315 314 312 311 312 314 314 314 314 314 314 316 318 319 317 317 318 319 319 319 318 315 314 314 314 314 315 317 315 313 316 319 318 318 319 318 317 315 315 315 313 312 311 311 310 310 310 309 309 310 312 312 311 311 311 312 311 310 309 309 309 309 308 309 309 309 309 309 309 309 309 309
321 322 320 319 319 319 319 318 319 323 322 319 320 319 316 316 314 313 312 311 311 312 313 314 313 312 314 317 318 319 318 317 318 319 319 319 319 316 313 314 315 314 314 314 314 316 319 320 319 318 319 319 319 318 318 317 314 311 311 311 310 309 310 310 310 310 312 311 310 310 311 310 309 309 309 309 309 309 308 309 309 309 309 309 308 308 308 308
322 324 321 319 318 317 318 317 317 320 319 320 321 318 317 318 314 311 313 313 312 312 311 313 312 312 317 319 318 318 318 317 318 319 318 318 320 317 313 314 314 314 314 314 314 317 320 321 321 320 320 319 319 318 317 316 314 311 312 312 311 310 310 310 310 311 310 310 310 310 310 310 310 309 309 309 309 309 309 309 309 309 309 309 308 308 308 308
322 323 320 319 319 319 319 318 318 318 317 318 320 318 317 319 316 314 314 313 313 313 313 313 314 314 317 318 318 317 318 319 319 318 317 318 320 317 313 314 314 314 315 313 313 318 318 319 321 321 320 319 318 318 316 314 314 312 311 311 311 310 310 310 311 311 310 310 310 310 310 310 310 309 309 309 309 309 309 309 309 309 309 308 308 307 307 307
321 321 318 317 320 321 321 320 318 319 318 317 317 318 317 318 318 318 316 313 313 314 315 317 319 317 315 315 317 317 319 321 321 319 318 318 319 318 316 316 315 314 315 313 314 319 319 318 321 320 318 318 317 315 313 312 313 313 312 311 310 310 311 311 311 311 310 310 310 310 310 309 309 309 309 309 309 309 309 309 309 309 308 308 308 307 307 307
319 320 317 318 320 319 319 319 318 320 323 321 320 319 318 319 318 317 316 315 315 316 314 316 319 318 316 317 317 317 319 321 320 319 319 318 318 318 318 319 317 313 314 314 315 317 317 321 325 320 316 318 315 312 312 312 313 313 312 312 311 311 311 311 312 312 310 310 310 310 309 309 309 309 309 308 309 309 309 310 309 308 308 307 307 307 307 307
319 319 317 319 321 319 319 320 319 321 323 322 321 319 316 319 319 316 314 313 315 317 315 315 317 317 318 318 316 317 320 321 320 319 319 318 319 319 319 319 317 316 316 316 316 314 313 321 326 318 315 318 315 312 312 313 313 312 311 312 311 310 311 312 311 311 310 310 310 309 309 309 308 308 309 309 309 310 310 310 309 308 307 307 307 307 307 307
317 316 317 320 322 321 320 319 318 321 323 323 323 319 316 318 317 315 315 313 312 316 315 314 317 318 319 319 317 318 320 319 318 317 316 316 317 318 318 316 316 317 318 319 317 314 314 320 323 317 315 318 316 313 313 312 312 312 311 311 312 311 311 311 310 310 310 310 310 309 309 309 309 308 309 309 309 310 310 310 309 308 307 307 307 306 306 307
313 315 317 320 323 321 319 320 320 322 323 322 321 318 315 316 314 313 317 316 312 313 314 313 314 316 319 320 318 317 315 314 315 314 313 314 314 313 315 315 314 314 317 319 319 318 317 317 319 317 315 317 317 314 313 312 313 315 313 311 311 312 311 310 310 309 310 310 309 308 309 309 308 308 309 310 309 309 310 309 308 308 307 306 306 306 306 306
Wind_Speed
18 18 18 18 17 15 15 13 12 12 13 13 14 13 13 13 12 12 11 8 8 10 11 10 8 8 9 9 7 5 7 7 8 11 12 13 14 12 10 9 8 7 6 5 6 7 9 8 8 5 1 2 5 6 4 6 8 6 1 2 3 3 3 3 4 4 6 7 7 13 18 11 9 16 21 18 14 20 25 31 32 27 21 14 19 30 32 35
18 18 18 17 16 15 14 13 12 12 13 13 14 14 13 13 12 12 10 7 8 9 10 9 7 7 8 7 5 4 7 6 7 12 14 14 14 12 11 10 11 9 7 6 5 6 8 8 9 9 4 6 7 6 3 3 6 4 2 2 3 4 4 6 8 8 10 10 9 14 16 12 11 14 18 13 11 15 17 21 28 28 26 20 12 24 31 35
17 17 17 17 16 15 13 13 12 12 12 13 14 14 14 13 12 11 9 7 7 9 9 8 7 6 5 4 4 7 8 4 6 11 13 12 13 14 14 13 12 10 7 5 5 6 7 6 7 9 6 5 6 7 6 3 3 4 4 2 4 5 6 10 13 12 15 15 11 12 12 12 15 16 14 9 8 8 10 12 20 21 20 22 9 16 24 29
17 17 17 16 16 15 14 13 12 12 13 13 14 14 13 13 11 9 7 6 6 8 8 6 5 4 3 2 5 9 8 4 5 10 11 10 12 13 13 13 12 10 8 8 7 7 8 6 5 8 6 3 4 6 5 4 5 3 5 4 6 8 6 13 19 19 23 20 12 10 9 10 14 14 12 10 8 2 7 9 12 13 14 18 11 8 15 21
17 17 17 16 16 15 14 13 13 13 14 14 14 13 12 11 10 7 5 4 6 7 7 5 5 4 3 4 7 10 8 3 4 8 10 10 9 10 12 13 12 11 9 9 10 9 8 8 6 8 5 2 3 3 4 6 8 4 5 10 12 11 6 15 24 23 23 18 13 9 6 7 11 10 11 11 6 4 5 11 11 10 12 16 16 0 14 19
16 17 16 16 16 15 14 13 13 14 14 15 14 12 11 10 8 5 3 3 5 6 6 5 5 5 5 9 11 11 6 1 4 7 10 12 8 7 11 13 12 11 10 11 14 12 10 12 7 5 3 1 3 2 6 11 7 5 6 10 15 15 9 14 21 19 18 15 12 8 5 8 8 7 9 10 11 16 18 19 18 14 12 12 15 6 12 16
16 16 16 15 16 15 15 14 14 14 14 15 13 10 10 9 6 2 2 3 4 5 5 5 5 6 7 12 12 7 3 2 3 6 9 12 9 5 7 10 11 10 12 13 16 14 13 15 9 4 4 2 4 3 8 16 10 2 4 8 11 12 9 13 17 16 15 15 15 13 9 7 6 7 9 10 14 24 27 24 24 21 16 10 9 6 7 13
15 16 15 15 15 15 16 15 15 14 14 14 12 10 10 8 4 2 2 3 4 4 4 5 5 6 8 11 11 5 3 3 3 6 9 11 10 6 5 6 8 9 12 14 15 14 14 15 11 9 3 2 6 7 12 15 8 4 5 10 13 13 11 13 14 14 15 15 18 17 11 8 10 11 10 12 15 20 26 29 28 24 19 12 6 4 3 7
15 16 15 15 15 15 16 16 16 14 13 13 11 9 10 7 3 3 2 3 4 3 3 4 5 8 9 11 11 5 4 5 2 5 8 9 10 7 4 4 7 8 10 12 14 12 14 13 13 11 2 4 9 9 14 10 4 6 9 12 14 13 15 16 14 16 19 17 16 13 10 10 12 10 8 14 16 13 18 25 28 25 23 18 7 6 8 7
15 16 15 14 14 15 16 17 16 14 13 13 10 9 9 5 4 3 3 3 3 3 4 4 6 10 10 12 9 4 7 9 4 3 7 8 8 9 6 3 4 6 6 9 11 7 10 11 12 11 2 6 10 9 12 6 6 13 14 14 13 13 17 19 16 18 20 16 14 10 10 14 13 8 6 13 19 14 11 16 23 26 28 26 12 5 7 11
16 16 15 13 13 14 15 16 16 14 13 11 8 8 8 5 4 3 2 2 2 3 4 5 8 10 11 12 8 3 8 9 4 4 5 7 7 9 9 6 4 5 5 6 7 3 6 6 8 9 3 6 10 9 10 8 12 16 16 14 13 15 18 17 15 17 15 11 17 16 13 19 13 5 8 15 21 18 15 14 18 22 27 31 23 10 7 12
16 15 16 13 12 13 15 16 16 14 13 10 7 6 6 4 3 2 1 1 2 3 4 7 9 11 13 11 6 4 6 5 3 5 4 6 8 9 10 9 8 7 7 8 6 4 6 6 6 6 4 6 7 5 9 13 17 18 14 8 9 12 11 13 11 13 9 5 19 18 11 15 7 7 15 18 18 19 20 18 19 21 23 29 31 22 12 12
17 15 16 14 12 13 14 15 15 13 12 9 5 5 5 3 1 1 0 1 3 4 6 8 10 12 14 10 6 5 5 2 3 5 6 8 11 12 11 10 8 7 8 10 10 9 10 7 6 7 7 7 4 4 9 15 15 14 10 3 5 8 5 10 10 10 8 7 19 12 5 9 4 9 18 19 18 18 20 20 21 23 22 24 29 29 23 18
19 15 15 15 12 12 13 14 14 12 11 7 5 5 5 3 1 1 2 4 5 6 7 9 11 12 12 9 6 5 4 3 5 6 7 9 10 12 9 7 9 10 10 11 10 10 11 8 7 8 9 10 8 7 8 9 7 5 5 3 3 3 4 9 9 8 7 11 18 7 4 8 5 9 17 19 20 18 18 21 23 23 23 24 26 28 29 27
20 15 15 15 13 12 12 13 13 11 9 6 5 5 4 3 2 3 4 5 7 8 8 9 10 11 13 8 3 3 5 5 7 6 7 7 7 7 6 7 10 13 13 12 10 11 11 11 10 8 8 10 9 6 4 3 3 1 2 4 2 1 5 8 9 8 6 11 15 6 3 7 5 9 15 18 18 17 17 19 20 20 20 23 25 28 30 30
22 16 14 14 13 12 12 11 11 9 7 5 6 6 5 4 4 5 5 6 9 9 9 10 11 12 10 5 5 5 4 6 9 9 8 6 6 8 8 10 11 14 15 12 13 14 13 13 13 10 8 6 4 2 3 4 4 3 1 3 4 3 4 6 7 8 8 8 9 7 4 5 5 8 13 16 14 14 13 13 13 13 15 17 20 24 29 33
23 16 13 14 14 13 12 10 9 7 5 6 7 6 6 7 6 6 7 8 10 11 12 12 14 14 7 4 7 7 5 7 9 10 7 4 7 9 10 13 15 18 19 17 17 16 13 12 10 7 5 3 1 3 4 4 4 3 2 2 4 5 4 5 6 8 8 5 6 8 6 6 7 8 14 16 13 12 13 13 11 10 13 17 19 21 24 29
24 17 13 13 13 13 11 9 8 5 5 8 9 7 7 8 6 5 5 9 11 12 11 9 9 7 4 6 8 8 10 9 8 10 7 3 5 8 11 14 16 19 20 16 14 11 9 8 4 1 3 3 2 3 1 4 3 3 4 3 4 5 4 5 6 6 6 5 6 9 8 9 9 9 14 18 15 11 13 16 17 15 17 22 23 24 25 24
25 18 12 12 13 11 9 9 7 4 5 8 9 8 10 10 4 1 4 9 11 8 5 5 5 2 4 10 10 9 12 8 8 11 8 4 5 9 10 11 13 15 10 6 7 5 7 4 1 1 3 3 2 1 2 3 2 3 4 4 6 6 5 6 7 7 6 7 7 7 7 9 10 10 11 18 20 14 14 17 20 20 20 23 25 25 24 22
25 18 12 11 11 9 8 10 7 4 6 9 10 10 12 13 5 1 9 13 12 10 9 10 12 13 12 12 11 11 12 9 10 9 3 3 8 11 8 8 11 8 2 2 5 3 5 2 1 3 4 4 4 4 2 0 1 4 5 5 6 6 6 7 8 9 6 4 5 6 7 8 10 10 9 16 19 14 14 16 19 24 23 23 25 25 24 21
26 18 12 11 10 7 6 8 7 5 6 8 12 11 9 10 5 4 13 14 9 10 12 12 14 18 17 13 12 12 11 11 11 4 2 4 9 8 7 8 7 5 5 5 3 2 4 3 1 5 5 5 5 4 1 1 3 4 4 5 6 5 6 8 8 10 7 2 5 6 6 7 8 8 10 14 12 10 13 14 18 24 23 21 22 23 24 22
26 20 12 11 10 6 4 6 7 6 7 7 10 10 7 7 6 8 11 11 10 8 12 13 12 15 16 11 9 9 9 9 6 1 1 8 10 7 7 8 5 2 6 4 3 5 4 1 4 6 4 2 4 4 0 1 3 3 4 4 4 4 5 6 6 8 7 2 5 6 5 6 7 7 8 9 7 10 16 17 19 24 24 23 21 21 23 23
26 21 14 11 10 6 4 5 6 8 9 7 7 9 7 7 9 11 8 7 10 8 10 13 11 12 13 8 6 7 7 5 3 2 4 9 9 7 6 5 3 3 5 3 3 3 3 3 7 5 4 4 4 5 3 3 3 3 4 3 4 5 4 5 4 7 7 3 4 5 4 5 6 5 6 7 7 10 14 13 14 15 15 17 19 20 21 22
26 22 15 12 11 8 5 4 7 9 7 6 7 7 8 11 11 11 7 4 6 6 6 9 8 7 9 7 5 6 6 5 6 7 6 8 6 5 3 2 3 3 4 2 4 3 2 7 5 5 5 4 4 5 6 5 4 4 4 4 4 5 6 6 7 8 6 4 4 4 5 4 4 6 5 8 11 12 15 20 22 24 24 25 29 31 31 28
25 23 17 13 11 9 5 2 6 8 6 8 8 8 12 15 13 11 6 0 3 4 2 4 5 3 6 5 5 6 5 5 9 10 7 6 3 2 2 1 1 2 5 4 2 2 4 5 3 5 5 6 5 4 4 3 3 4 4 5 6 7 8 8 9 8 5 4 4 5 5 4 4 6 5 6 7 9 14 17 18 24 28 30 31 32 35 35
24 23 18 13 11 9 4 2 6 6 6 8 9 11 16 16 12 9 3 3 2 3 1 2 4 3 6 5 5 5 2 3 8 11 8 4 3 1 2 2 1 2 6 3 1 1 3 3 5 4 4 6 5 3 3 3 4 4 4 5 7 7 7 7 8 5 2 3 5 2 1 4 4 5 6 5 5 8 12 11 14 22 26 27 28 29 33 35
24 23 19 13 11 9 5 4 5 4 5 9 10 13 17 15 11 8 2 4 3 2 1 2 3 4 8 6 4 2 1 5 5 10 10 6 4 2 1 3 1 3 6 1 3 3 2 4 5 5 5 5 4 3 4 3 3 4 6 6 6 6 7 7 6 3 3 4 5 2 2 2 4 4 4 7 8 10 12 11 14 22 28 29 29 29 31 33
23 23 19 13 11 9 7 6 5 3 6 11 14 15 15 11 7 4 3 4 2 2 1 2 2 7 12 10 8 4 3 5 1 5 10 8 5 1 1 2 1 3 4 5 3 5 1 3 3 5 5 3 2 4 5 4 2 5 8 6 5 7 7 7 5 3 3 2 4 4 1 1 4 3 5 7 9 12 13 11 12 18 25 28 30 31 32 33
23 23 20 13 10 9 8 6 5 5 8 12 15 14 9 4 2 1 4 2 2 1 3 3 3 9 13 8 7 6 5 6 4 3 7 8 7 1 0 1 1 1 4 8 4 4 2 1 2 5 4 2 3 5 4 4 2 6 7 6 7 7 5 4 3 2 1 1 3 4 2 2 3 3 5 5 7 10 10 9 11 17 23 26 28 32 33 36
22 22 20 13 9 9 8 6 6 8 10 12 13 9 3 1 1 4 3 0 1 3 5 3 3 8 11 5 5 11 9 7 11 10 3 5 3 7 2 3 6 3 4 4 4 5 4 1 3 4 2 3 3 4 3 3 4 6 4 5 8 6 3 2 0 2 3 1 3 1 3 2 0 2 4 4 5 7 8 9 13 19 26 28 29 32 34 35
22 21 19 13 8 7 7 6 6 8 10 11 8 6 3 2 3 5 1 1 1 4 6 3 3 6 7 4 3 8 6 6 12 13 4 2 8 12 5 4 6 4 5 5 4 7 6 4 3 2 4 4 3 3 4 5 6 6 4 4 5 4 4 4 3 3 3 2 4 2 5 1 2 1 3 4 4 5 7 9 13 18 24 30 32 34 35 34
22 20 16 10 5 4 6 5 4 7 10 11 8 5 2 3 4 2 1 3 1 2 3 3 4 5 4 3 4 6 4 5 9 9 5 2 4 6 4 2 2 3 5 4 4 6 5 3 1 1 6 7 4 3 6 6 7 6 5 4 4 3 4 4 3 2 0 4 3 5 8 3 2 1 2 4 5 6 7 9 12 17 23 30 33 36 37 34
22 19 11 5 2 3 5 4 6 10 12 13 9 4 3 5 2 1 1 3 2 3 2 3 5 5 3 5 6 7 5 5 9 8 3 3 4 4 4 2 3 4 1 2 2 5 4 5 4 3 4 6 5 3 4 5 5 6 5 3 3 1 3 3 3 2 2 4 5 7 5 0 1 1 3 3 4 5 9 12 15 20 24 28 33 36 36 35
20 17 9 2 1 3 4 5 7 10 13 14 8 2 6 4 0 1 1 2 3 2 2 3 5 5 5 5 3 5 4 3 8 8 4 3 3 3 3 3 3 4 2 0 2 2 1 4 4 2 2 1 4 3 1 3 3 3 2 2 3 2 1 1 2 2 3 4 7 7 2 0 2 1 4 1 6 9 13 18 22 25 27 29 33 35 35 35
19 15 6 2 1 3 3 5 6 9 13 13 5 4 6 1 2 1 1 3 2 2 4 5 4 4 5 3 1 4 4 2 6 7 4 3 3 1 0 2 3 2 3 2 1 1 1 3 4 0 2 2 3 4 3 3 2 2 1 3 1 2 3 2 2 3 3 3 4 3 1 2 2 3 2 4 10 13 18 24 27 27 29 31 32 34 35 35
17 11 3 2 3 3 2 3 5 8 11 9 5 4 2 2 2 1 2 2 1 2 4 5 5 4 4 4 3 6 6 3 4 6 3 2 3 2 1 2 3 2 3 2 1 1 1 4 4 2 6 5 5 5 5 4 2 2 3 1 4 3 4 1 3 3 1 1 2 2 3 4 1 1 3 8 10 12 17 22 25 26 29 30 29 32 35 35
15 9 3 2 4 3 1 1 2 6 8 6 4 1 2 2 1 3 2 1 1 1 3 3 2 2 2 3 3 6 6 4 4 4 2 2 3 3 2 3 4 3 2 2 1 1 1 4 5 1 3 2 5 8 8 7 3 2 1 3 4 1 2 1 1 2 2 1 3 3 4 4 2 1 5 9 11 12 15 17 20 24 26 26 28 31 34 35
16 10 4 2 3 4 2 1 1 3 5 5 2 2 1 1 2 3 1 0 1 2 4 2 1 1 1 1 2 4 4 3 3 3 2 2 2 2 1 1 4 5 5 3 1 1 1 2 6 2 3 1 3 6 5 7 6 5 1 3 2 2 2 1 1 1 2 2 3 2 3 2 1 2 5 7 9 13 16 17 18 20 23 26 29 32 33 34
15 9 4 4 3 4 3 1 1 1 3 3 0 2 1 1 2 2 1 1 2 3 3 2 2 1 2 2 1 3 3 2 2 3 2 1 1 2 0 1 2 7 8 5 3 1 1 1 4 3 2 2 2 2 1 2 4 4 3 4 3 2 2 1 0 1 0 3 3 1 3 2 3 3 3 5 9 13 16 18 17 20 25 29 31 32 33 32
11 5 2 3 3 3 4 4 2 2 2 0 2 2 1 0 1 2 3 3 0 2 1 2 2 1 1 1 1 1 1 1 1 1 1 1 2 3 2 1 1 6 7 6 3 1 3 1 3 4 1 2 2 2 1 2 2 2 4 4 3 2 1 0 1 1 2 1 2 2 3 3 3 3 3 4 10 14 16 16 16 21 28 30 31 32 32 32
7 3 1 1 2 3 4 4 3 2 2 1 2 1 1 1 1 5 9 9 3 1 1 2 2 2 2 1 1 1 0 2 1 1 1 2 2 2 3 2 3 3 4 5 2 1 1 0 2 3 3 2 2 3 4 4 2 2 2 1 0 1 2 2 1 2 0 2 2 2 3 5 4 3 2 6 10 13 18 18 16 23 30 31 32 32 31 32
6 2 0 2 3 2 2 2 1 1 2 1 2 2 1 1 0 5 9 9 5 2 1 1 1 2 2 2 1 1 1 1 1 0 1 2 2 2 3 6 5 2 3 1 2 2 2 2 0 2 2 3 3 5 8 7 6 5 2 0 1 2 3 4 2 3 2 1 3 1 2 5 3 2 3 10 14 17 22 22 18 23 30 31 33 34 33 32
8 4 2 2 4 2 1 2 3 2 0 1 1 2 2 2 1 3 4 5 3 2 3 1 1 1 1 2 1 2 1 0 1 1 1 2 3 4 6 10 9 4 2 0 2 2 1 2 1 2 1 4 4 4 4 4 5 5 2 1 1 1 1 4 4 1 1 2 1 0 3 4 1 3 9 16 21 24 26 26 23 24 28 31 33 35 34 34
9 5 6 4 3 2 1 1 1 2 3 3 2 2 1 1 2 2 1 2 1 1 2 1 0 1 2 1 3 2 3 1 1 3 2 2 4 6 10 15 11 3 0 1 2 1 1 1 1 2 2 0 1 0 2 1 3 2 1 2 1 1 3 1 1 1 1 1 1 1 4 4 4 7 13 17 21 23 26 30 29 25 27 30 32 33 33 33
8 4 7 9 3 4 2 2 2 2 2 2 3 2 2 2 1 2 1 2 1 1 1 1 2 2 1 2 3 0 2 3 1 3 2 2 4 6 9 13 9 2 3 5 2 1 1 1 1 1 3 3 2 3 3 1 1 1 1 2 2 1 2 1 1 1 2 1 2 2 4 7 10 12 14 16 17 20 26 32 33 29 29 30 31 33 33 32
5 1 5 8 3 2 3 2 5 3 1 1 2 1 2 2 1 0 2 2 3 3 1 2 2 3 3 3 3 2 1 1 0 1 1 3 3 4 8 12 6 1 7 9 3 3 2 1 1 3 3 3 5 6 2 4 3 1 1 2 3 2 0 2 2 1 3 3 3 3 4 9 14 15 15 16 18 19 21 26 31 33 32 32 33 33 34 35
3 1 2 4 3 4 7 7 9 7 2 2 1 2 1 1 2 1 1 1 3 5 2 1 2 3 3 3 2 1 3 2 2 1 2 4 4 4 10 11 3 3 7 7 3 2 3 2 3 5 6 7 7 5 1 6 4 3 3 2 4 3 1 3 1 3 3 3 3 4 7 11 13 14 15 17 18 17 17 21 28 33 33 33 33 33 35 38
3 2 2 3 2 1 3 6 9 8 3 3 1 1 1 2 2 0 2 2 4 4 2 2 4 2 1 2 3 1 2 3 3 2 2 3 4 4 8 7 3 4 5 4 3 2 4 2 5 4 5 5 2 4 7 7 3 4 5 3 4 3 4 4 5 6 4 2 4 8 11 12 12 13 14 17 19 18 20 25 29 32 33 32 32 34 37 39
3 2 2 3 3 4 5 9 11 8 4 3 1 1 1 1 1 2 2 2 4 3 2 1 3 3 1 2 4 2 2 0 2 4 2 3 4 2 3 4 4 5 4 3 3 2 4 2 5 4 6 3 6 8 8 8 4 3 4 4 5 4 4 6 7 6 6 6 7 9 11 11 10 10 13 19 25 25 26 29 32 32 32 32 33 36 37 40
3 2 4 5 6 6 8 10 8 6 4 1 2 0 1 3 2 3 1 1 2 4 1 1 4 5 2 2 3 1 4 6 4 4 4 2 2 2 2 2 3 4 3 2 2 1 3 3 4 1 4 3 6 7 6 7 6 4 1 4 3 2 3 4 4 3 3 4 7 7 8 9 9 12 17 23 29 29 25 27 32 32 32 34 36 36 37 38
3 3 4 4 4 4 7 9 7 3 3 1 1 1 1 2 4 3 1 3 5 4 3 3 4 3 3 3 2 4 7 7 7 9 8 6 6 6 4 4 4 3 4 2 3 0 2 3 3 3 3 3 5 9 6 3 2 3 4 6 7 5 4 4 5 3 2 3 7 8 8 8 10 15 19 22 26 25 22 25 30 31 33 36 36 37 39 40
3 4 2 1 2 3 5 7 6 3 1 1 1 3 2 3 5 4 1 4 6 6 5 3 3 2 3 3 6 8 9 9 10 13 13 12 14 14 12 11 8 6 4 2 2 1 2 0 3 1 1 4 2 8 7 1 2 2 2 5 6 5 4 4 5 3 3 2 5 8 8 9 11 14 15 18 19 18 21 27 28 29 34 38 37 38 41 43
Wind_Direction
7 9 7 6 8 8 7 8 10 14 16 14 12 10 9 5 0 358 357 6 13 11 17 27 43 72 109 121 110 85 48 34 33 26 23 22 22 20 19 29 37 57 99 77 36 35 47 53 45 29 302 244 251 262 269 255 254 264 251 224 258 224 221 226 235 262 278 285 307 324 341 354 334 346 346 337 352 19 36 31 30 47 57 80 134 144 150 159
8 10 9 10 11 10 9 11 13 15 15 13 10 7 5 2 360 357 354 4 15 15 22 34 54 85 111 114 101 56 19 16 31 29 25 26 33 39 46 60 66 75 95 75 47 38 42 50 37 13 309 241 244 246 239 242 238 217 173 249 242 217 234 248 257 261 270 286 308 316 327 344 328 332 347 342 343 20 45 28 26 31 22 26 98 146 157 162
8 11 12 14 13 11 13 15 17 16 14 11 7 4 2 0 360 355 350 359 16 22 28 42 63 93 110 101 58 15 4 16 33 27 25 35 51 59 60 64 65 64 66 49 33 23 8 12 15 353 312 235 236 243 236 228 240 219 205 265 249 234 259 269 272 265 271 289 302 309 324 340 336 335 338 335 341 31 73 39 29 29 16 10 21 149 151 160
9 12 14 15 14 14 17 18 19 16 13 10 5 3 1 360 360 354 349 3 23 33 38 50 66 87 97 60 21 4 358 25 32 23 23 39 64 63 53 50 43 40 36 20 13 8 348 350 353 332 316 251 250 247 233 211 228 224 188 214 243 239 255 265 268 269 275 288 294 305 335 345 342 341 337 347 351 39 82 46 32 24 18 12 4 156 149 156
9 13 15 15 15 16 17 19 19 16 13 9 6 3 0 0 359 355 351 8 28 43 47 50 54 56 44 7 357 352 356 19 5 16 23 32 67 67 46 38 29 27 30 24 13 7 358 1 339 312 313 275 289 279 274 248 232 245 230 230 241 242 248 259 263 267 274 288 299 313 347 327 326 334 335 348 338 274 328 345 351 2 1 359 360 89 180 169
10 12 15 15 15 16 16 18 17 14 12 8 7 4 1 2 359 357 357 15 35 49 52 49 44 31 11 356 350 349 7 57 332 8 23 23 55 76 49 37 29 25 23 17 3 359 358 3 352 301 320 318 312 270 292 303 270 243 265 257 254 250 247 262 264 268 281 296 298 302 310 305 319 326 320 317 300 298 307 315 318 324 331 339 355 359 187 176
10 11 15 15 13 15 14 15 13 11 10 9 9 7 5 4 5 14 14 33 43 48 43 35 34 19 359 351 352 353 351 318 342 11 12 17 37 73 59 45 42 29 14 7 0 4 355 352 1 342 5 47 339 320 323 330 323 259 291 299 288 277 270 279 279 276 286 295 297 307 310 306 310 303 302 291 291 300 300 303 308 309 313 317 337 345 170 166
9 10 12 14 12 12 12 12 10 8 9 9 11 11 10 12 28 68 46 52 49 48 37 19 14 1 354 353 355 356 333 329 26 24 2 6 19 45 80 58 52 35 18 11 1 7 0 354 5 356 358 52 353 347 349 345 349 12 323 319 325 315 309 316 312 306 310 309 313 321 315 300 296 296 292 280 286 298 297 298 303 307 307 305 302 274 221 181
8 8 10 12 11 9 9 9 7 7 8 11 14 16 17 26 70 94 71 61 52 53 30 7 356 348 348 351 350 356 358 344 8 16 4 9 7 15 61 58 43 30 27 20 2 0 6 7 4 355 340 3 359 347 349 352 339 334 315 320 325 314 322 335 333 328 326 317 316 318 304 295 294 298 285 281 291 300 300 299 303 309 306 303 287 249 256 229
6 6 7 9 9 7 6 6 5 6 8 12 19 22 25 43 93 102 86 64 46 34 16 2 354 348 346 349 347 0 1 347 345 352 7 24 8 350 351 359 19 13 14 14 5 351 357 3 354 356 13 347 351 334 338 340 306 314 313 320 317 315 329 331 326 326 326 320 316 308 291 291 287 287 269 282 295 296 297 296 301 305 301 298 291 267 244 219
4 4 4 4 7 5 2 3 4 5 8 13 24 31 33 57 103 106 98 75 42 18 5 352 351 350 346 342 331 338 356 348 336 318 350 18 4 353 347 324 315 339 335 341 2 354 326 336 350 5 26 331 332 317 320 318 317 317 317 323 319 330 336 325 319 319 325 328 316 309 292 291 285 258 255 276 290 290 285 278 285 292 293 294 289 283 243 221
2 1 1 1 2 3 0 1 3 5 8 14 31 41 42 65 107 111 108 61 17 353 345 342 346 346 344 335 300 311 354 351 328 308 323 346 344 349 348 329 298 303 313 294 302 324 305 297 316 336 324 318 321 313 321 321 320 315 317 324 323 343 338 317 318 314 328 334 308 309 291 287 275 243 261 266 275 282 283 275 273 276 279 285 286 286 265 235
0 358 360 358 357 0 358 357 2 6 8 17 41 52 51 65 93 118 12 333 323 321 328 330 330 333 336 322 285 308 328 317 332 317 303 315 332 331 322 325 317 315 319 285 277 300 304 286 273 290 301 305 297 293 308 312 312 309 319 341 329 347 327 307 317 314 325 303 298 302 274 291 285 262 271 270 266 268 275 275 275 274 271 273 280 286 280 264
359 356 357 357 355 356 356 355 359 6 10 22 50 55 56 54 26 316 317 310 304 311 322 325 323 327 327 310 285 297 272 268 308 302 296 300 322 329 305 305 328 331 322 292 274 284 292 282 270 278 282 273 265 283 303 307 304 304 331 3 356 341 289 293 300 302 314 292 288 274 237 292 292 284 291 287 270 258 261 267 271 271 268 268 270 276 279 274
359 354 354 357 354 352 353 352 356 6 14 31 55 52 47 28 358 339 327 306 303 310 317 320 320 327 324 311 306 297 249 263 301 311 320 306 302 318 295 280 310 323 315 294 273 276 279 266 261 263 269 269 258 274 329 339 312 352 357 326 316 251 273 287 283 275 269 279 282 256 240 282 273 285 298 298 280 260 256 262 270 272 271 271 267 267 268 269
359 354 352 355 354 351 349 349 356 6 21 41 39 24 9 349 333 328 318 309 309 306 312 315 313 322 321 312 349 345 278 281 315 328 327 303 272 285 287 277 293 314 315 300 283 288 283 256 253 264 269 269 231 238 10 9 329 2 46 275 270 256 282 297 285 268 254 266 277 254 243 270 263 271 288 301 300 286 272 265 267 268 276 281 276 272 266 261
358 354 351 354 354 350 347 349 356 9 32 32 16 8 353 337 322 311 302 308 308 299 303 300 294 303 306 323 347 350 337 317 319 322 314 278 266 279 287 281 289 305 309 304 292 287 275 243 237 266 270 266 127 94 32 354 315 327 336 277 273 273 284 294 293 290 280 266 271 266 255 261 264 270 281 287 293 291 283 282 280 273 288 296 294 293 285 265
358 355 352 354 354 352 350 351 357 20 34 19 13 11 1 345 325 312 313 315 308 299 300 289 282 295 297 321 331 334 341 332 317 316 312 293 283 290 294 290 300 310 307 305 296 273 244 227 209 283 328 341 15 77 14 296 277 303 327 315 298 290 279 278 281 292 307 309 289 280 273 270 274 276 281 284 286 276 267 281 293 296 299 299 297 297 295 277
358 356 355 354 356 359 360 356 2 35 34 26 19 7 11 9 0 44 358 322 308 300 294 288 288 264 271 304 318 330 336 332 322 321 310 286 303 307 297 297 316 317 303 304 302 251 195 200 34 31 313 310 291 275 270 266 268 298 312 304 298 299 283 277 275 273 298 314 294 273 267 267 274 276 278 285 289 285 280 288 296 298 298 295 292 291 287 272
358 358 356 355 360 8 13 8 14 36 25 27 20 10 16 18 33 48 329 312 296 288 281 282 282 272 274 295 310 322 332 339 333 324 294 264 304 311 308 317 331 332 313 268 288 260 162 138 326 226 240 252 256 288 304 349 318 304 309 298 288 293 288 283 283 281 291 301 276 268 276 276 279 284 283 284 288 295 295 294 291 288 287 286 285 286 280 267
359 358 356 357 360 8 23 17 15 21 16 23 22 19 19 17 24 328 323 317 298 279 272 274 278 275 274 282 298 315 332 343 338 325 183 320 330 330 337 352 358 355 315 292 292 346 80 89 270 230 228 240 264 297 338 338 315 304 293 289 288 283 278 280 281 289 303 300 278 296 312 302 291 291 292 289 288 286 280 275 274 276 278 281 279 281 282 279
360 358 354 355 355 355 12 9 3 1 356 7 20 23 23 15 354 317 317 311 299 275 256 264 274 273 272 275 293 313 322 328 334 139 228 335 360 5 351 6 28 326 304 319 25 9 27 51 257 248 252 284 295 299 302 264 308 305 291 299 299 280 280 286 281 298 316 322 293 314 330 301 285 280 279 278 269 265 272 270 269 272 276 279 281 284 290 292
359 357 352 351 352 343 336 346 345 340 338 352 20 23 10 341 324 317 307 282 292 286 249 255 259 260 270 285 303 305 308 313 294 237 302 335 5 8 356 11 3 310 321 359 85 47 9 263 258 280 323 359 335 318 359 10 352 332 312 315 296 297 318 310 304 316 321 310 282 304 323 297 292 301 289 293 303 296 303 317 316 313 310 310 323 333 327 317
358 356 349 347 350 343 329 332 351 349 353 29 37 21 349 325 318 319 306 260 287 293 248 248 252 257 274 288 296 289 292 297 271 254 293 333 353 346 340 14 352 332 303 282 119 98 273 253 270 342 354 11 3 347 11 19 357 323 296 291 289 308 321 310 313 320 319 308 290 334 348 309 320 341 321 321 328 332 355 13 13 9 9 6 5 4 1 355
356 355 349 343 346 347 339 337 19 26 43 44 23 346 332 326 324 322 311 290 300 288 210 234 241 273 305 288 268 272 271 278 268 256 272 313 319 307 322 347 43 323 283 265 101 63 272 272 350 18 2 13 20 353 9 31 347 315 280 272 287 305 310 309 319 324 337 329 311 8 3 291 313 333 305 318 337 356 17 26 19 11 11 11 8 4 2 3
353 353 348 339 339 347 355 359 18 38 48 22 357 331 325 322 327 325 315 66 340 271 140 212 219 283 306 270 249 269 294 286 259 247 252 277 278 258 341 344 142 287 292 278 28 312 265 342 37 67 25 18 21 338 338 31 4 305 274 283 294 305 306 306 314 320 333 300 290 339 298 268 313 312 296 333 7 15 18 20 15 10 7 5 4 1 359 357
350 350 347 336 331 343 0 1 360 22 12 344 330 324 321 318 320 312 322 53 351 264 211 209 200 315 309 290 280 243 290 317 267 237 243 241 254 230 233 329 35 310 300 10 25 308 234 5 28 57 36 28 22 329 295 352 4 281 286 308 308 302 296 291 292 285 263 285 302 290 190 259 303 294 327 10 26 19 13 12 11 6 0 358 357 356 355 353
347 346 346 333 321 328 339 343 339 350 339 322 317 320 317 314 310 300 77 68 285 280 356 259 261 324 325 321 308 260 243 323 342 243 268 240 218 175 142 296 219 270 320 72 35 305 276 28 29 62 46 30 330 290 291 340 350 274 293 307 301 290 282 278 269 263 271 293 309 309 70 94 273 297 6 23 31 18 6 5 5 359 355 353 351 349 348 346
346 342 341 332 313 313 324 328 309 306 322 324 328 330 320 301 301 49 80 92 255 302 343 324 323 326 331 333 327 346 7 352 8 332 289 229 216 283 105 350 114 215 19 79 81 322 337 66 101 98 66 328 285 283 312 13 309 277 295 306 310 304 282 272 243 236 325 336 277 294 58 75 287 334 6 15 32 15 354 355 355 350 351 350 346 344 342 340
345 339 337 331 309 305 317 320 307 312 331 341 342 341 326 258 41 63 55 124 212 320 322 319 323 336 351 15 11 8 17 353 356 2 318 188 74 24 66 54 39 54 13 48 65 354 333 354 65 76 33 288 286 304 344 27 327 313 338 331 327 330 331 350 164 130 70 339 262 224 95 101 270 13 21 31 40 13 350 350 350 347 349 347 344 341 337 336
344 339 334 329 311 307 323 324 316 326 346 359 353 336 324 325 58 91 83 284 254 334 342 324 311 352 10 35 18 359 360 340 357 10 357 144 48 28 38 32 16 35 9 358 8 354 354 23 37 45 22 355 334 334 348 1 358 9 21 353 348 345 350 13 5 39 72 265 254 29 22 13 185 171 51 54 46 27 8 354 349 346 342 340 337 336 333 331
343 339 334 327 316 320 336 347 5 2 4 12 2 324 335 42 34 94 274 327 316 313 330 296 312 345 353 16 23 354 349 352 357 8 17 78 62 31 48 78 19 28 1 333 339 346 354 14 335 31 35 30 35 0 343 348 6 19 14 18 35 7 354 11 345 356 100 248 270 359 355 342 176 157 74 42 16 16 9 356 351 344 336 334 332 331 330 328
341 339 337 325 327 346 352 29 42 24 15 10 355 326 78 78 37 291 316 337 259 243 286 296 316 338 21 46 20 346 351 11 0 355 8 84 95 53 46 75 91 76 338 260 4 3 340 326 338 6 15 30 67 58 346 331 351 359 354 28 70 47 9 351 311 324 297 272 303 334 343 306 210 152 109 47 358 352 354 353 348 341 333 329 328 327 326 325
341 340 336 289 302 351 5 35 28 19 15 6 354 23 65 70 174 20 9 278 255 270 321 329 327 351 40 62 31 4 10 351 359 358 346 37 61 54 33 13 45 93 133 124 39 52 26 304 312 338 316 356 71 73 336 296 314 315 325 83 101 118 108 275 257 299 300 286 306 322 344 292 283 173 142 68 345 348 347 345 341 337 333 329 326 325 324 324
343 342 332 264 343 352 11 26 16 12 8 3 10 72 64 71 242 7 285 250 281 332 322 340 14 33 24 18 19 34 35 335 352 358 351 37 45 26 72 345 355 92 104 47 342 152 136 257 256 61 53 66 56 25 354 348 327 298 37 74 65 174 164 203 238 234 266 289 296 303 301 287 248 168 140 357 351 347 340 338 339 335 331 329 327 325 325 323
344 345 322 263 334 348 16 12 8 12 4 7 47 67 74 177 205 182 207 235 279 323 333 355 35 52 358 343 347 1 13 16 4 358 346 36 28 4 42 340 332 47 93 88 289 292 24 282 263 59 47 52 66 40 13 4 318 311 35 22 275 226 156 173 281 267 310 316 284 290 297 316 346 194 332 351 347 339 335 335 335 331 328 327 326 325 324 322
347 355 339 281 318 328 351 38 17 15 6 23 71 101 220 184 191 200 204 321 280 314 53 39 23 54 354 346 341 339 356 9 8 3 337 345 357 354 10 325 321 10 76 116 257 243 182 286 287 83 69 40 71 65 36 13 26 103 26 289 288 345 104 115 293 311 352 245 271 295 283 299 357 295 323 343 336 331 334 330 327 327 327 326 324 323 322 321
347 355 4 17 326 295 263 136 55 13 16 40 78 261 254 167 213 207 184 89 264 49 80 119 251 113 124 41 319 318 357 20 358 347 333 344 340 342 30 309 314 338 356 39 44 260 150 291 308 5 120 141 52 62 36 6 36 91 223 297 41 64 342 16 74 318 318 285 277 290 287 284 182 234 304 320 323 329 331 328 326 329 329 326 323 322 321 321
343 348 15 29 342 280 259 274 322 31 40 46 90 275 317 155 234 232 189 179 143 88 81 184 200 65 94 129 200 306 1 29 338 335 359 24 325 295 217 205 299 327 344 43 102 264 64 105 289 306 137 130 30 31 174 313 6 43 18 358 40 124 190 223 139 140 283 294 289 296 319 297 205 213 263 290 323 335 332 329 327 326 325 322 319 318 319 319
340 350 41 19 330 278 261 256 231 123 90 122 192 233 322 90 302 314 355 354 283 134 116 207 179 83 62 106 203 280 345 358 340 337 327 348 313 285 277 208 266 315 341 47 90 298 48 72 279 300 10 92 6 310 191 198 272 23 36 13 352 348 70 39 291 158 151 247 289 298 297 277 244 205 210 303 335 337 330 327 323 320 320 318 316 316 317 318
354 7 64 11 314 270 251 229 204 141 112 218 210 245 314 232 342 2 17 19 10 199 175 187 166 130 127 72 318 255 4 337 341 10 309 335 337 309 303 294 288 315 5 40 28 327 80 36 286 306 336 27 357 352 49 70 80 84 80 149 184 19 65 72 297 278 184 172 226 276 287 279 266 178 177 334 340 332 325 324 317 316 318 317 317 317 316 316
1 352 229 302 278 254 244 231 228 160 138 184 202 165 178 194 47 9 19 30 36 29 21 178 151 113 147 175 227 152 90 330 249 122 264 264 263 262 301 321 332 26 81 46 286 235 154 112 339 291 335 70 68 60 80 90 88 81 59 198 138 85 95 121 223 281 306 242 227 236 285 276 254 133 3 338 332 323 321 320 315 315 318 318 319 319 318 317
351 356 35 294 248 227 357 325 346 2 318 264 192 149 154 170 78 19 15 25 33 47 26 354 101 69 195 188 140 128 122 177 214 240 278 252 261 286 334 353 2 37 88 19 289 274 118 81 324 291 57 104 99 82 109 118 88 73 17 330 86 31 164 177 200 258 302 272 270 333 275 270 287 13 344 333 325 321 321 322 320 317 318 321 322 320 320 320
343 348 20 8 259 246 38 118 298 313 289 303 357 32 37 122 68 39 6 346 348 87 49 338 271 354 275 157 109 149 166 116 288 280 281 241 281 320 353 358 357 13 99 256 234 287 333 342 343 337 322 300 126 344 263 215 86 87 255 274 230 300 324 264 207 317 267 224 51 2 270 281 314 333 334 329 323 321 322 324 323 320 321 323 322 321 320 320
350 343 357 1 310 247 261 165 154 203 250 341 10 6 12 25 70 65 329 297 313 107 106 278 282 305 301 86 69 56 160 133 231 281 292 282 291 321 349 346 345 8 298 295 274 105 183 210 105 49 310 309 292 288 288 240 90 106 224 253 242 273 356 15 190 274 248 264 344 277 258 292 311 321 326 324 323 322 322 324 325 324 324 324 322 321 318 316
17 1 333 349 351 294 314 26 64 46 262 63 29 316 12 12 226 235 339 338 14 21 323 273 316 3 32 62 54 353 292 156 106 322 312 303 282 289 321 329 338 316 302 309 334 73 100 202 189 182 213 249 248 257 237 127 121 161 226 247 240 250 333 99 112 255 265 283 275 233 263 300 310 319 323 322 323 322 320 324 326 326 327 326 324 321 317 315
35 62 346 352 345 353 358 13 23 3 295 141 77 272 276 324 266 284 325 306 15 17 4 305 22 51 39 49 75 348 306 324 357 15 272 286 263 279 313 320 305 256 292 307 326 67 87 319 261 204 217 237 246 262 113 109 126 173 188 228 245 247 130 109 172 233 254 305 289 285 313 311 308 315 318 319 323 322 319 321 323 325 325 322 321 319 316 315
14 319 14 21 317 320 7 335 330 329 282 181 146 213 223 307 328 251 270 304 8 29 54 2 9 53 134 116 117 177 313 354 339 293 256 294 293 313 326 321 266 260 296 321 316 122 121 272 257 214 251 259 169 107 108 111 130 183 180 209 230 207 157 178 235 231 191 212 271 296 314 310 304 312 316 319 322 319 315 316 320 322 321 320 321 320 319 319
12 316 330 3 316 268 284 295 302 314 288 219 184 96 194 251 302 258 255 12 354 346 86 58 310 295 282 99 115 162 241 216 302 289 252 273 295 306 318 312 286 288 320 343 292 163 123 265 247 218 281 289 125 128 132 127 133 177 199 228 224 214 216 223 239 226 195 216 257 286 302 299 298 309 313 317 321 319 316 318 322 324 324 325 325 323 322 322
19 326 310 331 317 297 304 308 312 326 317 252 159 251 182 151 200 266 257 106 302 303 37 144 252 260 285 38 75 207 226 192 189 235 224 222 290 257 214 244 261 291 331 343 276 147 120 260 250 181 312 298 142 140 139 136 139 139 189 260 260 296 295 262 255 243 212 249 274 286 298 301 308 317 318 320 324 325 323 324 326 327 327 329 327 323 320 318
319 282 298 329 317 314 330 325 325 352 342 341 136 196 219 176 199 213 261 232 215 230 249 225 230 260 335 353 322 264 239 208 205 233 231 221 244 246 232 233 244 292 326 311 281 241 137 263 303 52 358 295 168 154 162 170 125 80 36 354 350 346 322 287 281 265 204 267 307 326 330 322 319 322 321 323 328 329 328 328 326 324 327 329 325 322 322 321
284 225 214 5 306 310 344 333 335 26 10 270 164 170 209 230 203 172 350 276 236 230 248 228 204 261 335 298 272 271 265 256 264 273 268 255 251 252 254 257 264 278 270 234 278 275 142 260 315 48 342 300 186 148 158 164 11 358 344 357 346 314 285 298 305 275 213 258 343 345 326 311 311 317 322 325 331 333 328 324 322 322 327 329 326 326 327 326